Weather History for Tucumcari, NM

Change the Weather History Date:

Tuesday, November 20, 2012

  Actual Average Record
Temperature  
Mean Temperature 51 °F -  
Max Temperature 72 °F 58 °F 81 °F (2007)
Min Temperature 30 °F 30 °F -1 °F (1906)
Degree Days  
Heating Degree Days 14    
Growing Degree Days 1 (Base 50)    
Moisture  
Dew Point 14 °F    
Average Humidity 27    
Maximum Humidity 50    
Minimum Humidity 8    
Precipitation  
Precipitation 0.00 in - - ()
Sea Level Pressure  
Sea Level Pressure 30.17 in    
Wind  
Wind Speed 6 mph (WSW)    
Max Wind Speed 15 mph    
Max Gust Speed -    
Visibility 10 miles    
Events      
Averages and records for this station are not official NWS values.
T = Trace of Precipitation, MM = Missing Value Source: NWS Daily Summary

Daily Weather History Graph

Daily Weather History Graph

Search for Another Location

Airport:

Trip Planner

Search our weather history database for the weather conditions in past years. The results will help you decide how hot, cold, wet, or windy it might be!

Date:

Astronomy

Nov. 20, 2012 Rise Set
Actual Time 6:34 AM MST 4:45 PM MST
Civil Twilight 6:07 AM MST 5:12 PM MST
Nautical Twilight 5:36 AM MST 5:43 PM MST
Astronomical Twilight 5:06 AM MST 6:13 PM MST
Moon 12:17 PM MST (11/20) No Moon Set
Length of Visible Light 11h 05m
Length of Day
10h 10m
First Quarter, 52% of the Moon is Illuminated
Nov 20
First Quarter
Nov 28
Full
Dec 6
Last Quarter
Dec 13
New
Dec 19
First Quarter

Hourly Weather History & Observations

Time (MST) Temp. Windchill Dew Point Humidity Pressure Visibility Wind Dir Wind Speed Gust Speed Precip Events Conditions
12:53 AM 37.0 °F 31.6 °F 14.0 °F 39% 30.15 in 10.0 mi WSW 6.9 mph - N/A   Clear
1:53 AM 37.9 °F - 15.1 °F 39% 30.16 in 10.0 mi Calm Calm - N/A   Clear
2:53 AM 37.0 °F 31.6 °F 16.0 °F 42% 30.17 in 10.0 mi NW 6.9 mph - N/A   Clear
3:53 AM 37.0 °F 32.4 °F 16.0 °F 42% 30.16 in 10.0 mi NW 5.8 mph - N/A   Clear
4:53 AM 33.1 °F - 14.0 °F 46% 30.20 in 10.0 mi Calm Calm - N/A   Clear
5:53 AM 30.9 °F 25.2 °F 12.9 °F 47% 30.22 in 10.0 mi SW 5.8 mph - N/A   Clear
6:53 AM 30.9 °F 25.2 °F 14.0 °F 50% 30.24 in 10.0 mi West 5.8 mph - N/A   Clear
7:53 AM 41.0 °F 35.8 °F 18.0 °F 40% 30.25 in 10.0 mi West 8.1 mph - N/A   Clear
8:53 AM 48.9 °F - 19.0 °F 31% 30.26 in 10.0 mi WNW 6.9 mph - N/A   Clear
9:53 AM 54.0 °F - 19.0 °F 25% 30.25 in 10.0 mi West 4.6 mph - N/A   Clear
10:53 AM 57.9 °F - 19.0 °F 22% 30.22 in 10.0 mi WSW 3.5 mph - N/A   Clear
11:53 AM 62.1 °F - 19.0 °F 19% 30.17 in 10.0 mi SSW 4.6 mph - N/A   Clear
12:53 PM 66.9 °F - 19.0 °F 16% 30.14 in 10.0 mi South 4.6 mph - N/A   Clear
1:53 PM 72.0 °F - 12.0 °F 10% 30.09 in 10.0 mi South 13.8 mph - N/A   Clear
2:53 PM 72.0 °F - 7.0 °F 8% 30.09 in 10.0 mi South 15.0 mph - N/A   Clear
3:53 PM 70.0 °F - 6.1 °F 8% 30.10 in 10.0 mi SSW 15.0 mph - N/A   Clear
4:53 PM 60.1 °F - 7.0 °F 12% 30.14 in 10.0 mi SSW 6.9 mph - N/A   Clear
5:53 PM 57.0 °F - 5.0 °F 12% 30.16 in 10.0 mi SSW 5.8 mph - N/A   Clear
6:53 PM 53.1 °F - 5.0 °F 14% 30.19 in 10.0 mi South 3.5 mph - N/A   Clear
7:53 PM 50.0 °F - 8.1 °F 18% 30.18 in 10.0 mi West 6.9 mph - N/A   Clear
8:53 PM 51.1 °F - 14.0 °F 23% 30.17 in 10.0 mi WSW 3.5 mph - N/A   Clear
9:53 PM 48.9 °F - 16.0 °F 27% 30.16 in 10.0 mi WSW 8.1 mph - N/A   Clear
10:53 PM 48.9 °F - 16.0 °F 27% 30.14 in 10.0 mi West 12.7 mph - N/A   Clear
11:53 PM 48.0 °F - 17.1 °F 29% 30.13 in 10.0 mi WSW 12.7 mph - N/A   Clear